Weather History for Daytona Beach, FL

Change the Weather History Date:

Saturday, July 13, 2013

  Actual Average Record
Temperature  
Mean Temperature 80 °F 82 °F  
Max Temperature 87 °F 90 °F 100 °F (1980)
Min Temperature 73 °F 73 °F 66 °F (1925)
Degree Days  
Heating Degree Days 0 0  
Month to date heating degree days 0 0  
Since 1 June heating degree days 0 0  
Since 1 July heating degree days 0 0  
Cooling Degree Days 15 17  
Month to date cooling degree days 213 210  
Year to date cooling degree days 1353 1258  
Since 1 June cooling degree days 701 657  
Growing Degree Days 28 (Base 50)    
Moisture  
Dew Point 72 °F    
Average Humidity 80    
Maximum Humidity 94    
Minimum Humidity 65    
Precipitation  
Precipitation T in 0.19 in 2.00 in (1935)
Month to date precipitation 1.50 2.49  
Year to date precipitation 23.73 23.39  
Sea Level Pressure  
Sea Level Pressure 29.97 in    
Wind  
Wind Speed 5 mph (SE)    
Max Wind Speed 15 mph    
Max Gust Speed 21 mph    
Visibility 10 miles    
Events Rain , Thunderstorm    
T = Trace of Precipitation, MM = Missing Value Source: NWS Daily Summary

Daily Weather History Graph

Daily Weather History Graph

Search for Another Location

Airport:

Trip Planner

Search our weather history database for the weather conditions in past years. The results will help you decide how hot, cold, wet, or windy it might be!

Date:

Astronomy

Jul. 13, 2013 Rise Set
Actual Time 6:34 AM EDT 8:25 PM EDT
Civil Twilight 6:07 AM EDT 8:52 PM EDT
Nautical Twilight 5:35 AM EDT 9:24 PM EDT
Astronomical Twilight 5:01 AM EDT 9:58 PM EDT
Moon 11:20 AM EDT (7/13) 11:36 PM EDT (7/13)
Length of Visible Light 14h 44m
Length of Day
13h 51m
Waxing Crescent, 25% of the Moon is Illuminated
Jul 13
Waxing Crescent
Jul 15
First Quarter
Jul 22
Full
Jul 29
Last Quarter
Aug 6
New

Hourly Weather History & Observations

Time (EDT) Temp. Heat Index Dew Point Humidity Pressure Visibility Wind Dir Wind Speed Gust Speed Precip Events Conditions
12:53 AM 75.0 °F - 72.0 °F 90% 29.95 in 10.0 mi Calm Calm - 0.00 in   Scattered Clouds
1:53 AM 75.0 °F - 72.0 °F 90% 29.94 in 10.0 mi Calm Calm - N/A   Scattered Clouds
2:53 AM 75.0 °F - 72.0 °F 90% 29.93 in 10.0 mi Calm Calm - N/A   Scattered Clouds
3:53 AM 75.0 °F - 72.0 °F 90% 29.94 in 9.0 mi Calm Calm - N/A   Mostly Cloudy
4:53 AM 75.0 °F - 72.0 °F 90% 29.94 in 8.0 mi SSE 3.5 mph - N/A   Mostly Cloudy
5:53 AM 73.9 °F - 72.0 °F 93% 29.95 in 8.0 mi Calm Calm - N/A   Mostly Cloudy
6:53 AM 73.9 °F - 72.0 °F 93% 29.95 in 5.0 mi Calm Calm - N/A   Mostly Cloudy
7:53 AM 75.9 °F - 73.0 °F 91% 29.95 in 8.0 mi South 3.5 mph - N/A   Scattered Clouds
8:53 AM 80.1 °F 84.2 °F 73.0 °F 79% 29.97 in 10.0 mi SSW 3.5 mph - N/A   Scattered Clouds
9:53 AM 82.9 °F 88.0 °F 72.0 °F 69% 29.99 in 10.0 mi Variable 3.5 mph - N/A   Mostly Cloudy
10:53 AM 84.9 °F 90.7 °F 72.0 °F 65% 29.99 in 10.0 mi Variable 5.8 mph - N/A   Mostly Cloudy
11:53 AM 84.9 °F 90.1 °F 71.1 °F 63% 30.00 in 10.0 mi South 4.6 mph - N/A   Mostly Cloudy
12:53 PM 84.9 °F 92.1 °F 73.9 °F 69% 29.98 in 10.0 mi East 9.2 mph - N/A   Mostly Cloudy
1:53 PM 84.9 °F 91.4 °F 73.0 °F 67% 29.98 in 10.0 mi East 11.5 mph 18.4 mph N/A   Mostly Cloudy
2:53 PM 84.9 °F 91.4 °F 73.0 °F 67% 29.96 in 10.0 mi East 10.4 mph 18.4 mph N/A   Mostly Cloudy
3:53 PM 82.9 °F 88.0 °F 72.0 °F 69% 29.96 in 10.0 mi SE 9.2 mph - 0.00 in Rain Light Rain
4:53 PM 82.9 °F 89.4 °F 73.9 °F 74% 29.98 in 10.0 mi South 10.4 mph 18.4 mph 0.00 in   Mostly Cloudy
5:53 PM 79.0 °F - 69.1 °F 72% 30.00 in 10.0 mi West 12.7 mph - N/A   Mostly Cloudy
6:35 PM 75.2 °F - 71.6 °F 89% 29.99 in 9.0 mi West 9.2 mph - 0.00 in Rain , Thunderstorm Light Thunderstorms and Rain
6:53 PM 75.9 °F - 72.0 °F 87% 30.01 in 9.0 mi North 6.9 mph - 0.00 in Rain , Thunderstorm Light Thunderstorms and Rain
7:40 PM 75.2 °F - 71.6 °F 89% 29.99 in 10.0 mi NE 4.6 mph - 0.00 in   Overcast
7:53 PM 75.9 °F - 71.1 °F 85% 29.99 in 10.0 mi NNE 5.8 mph - 0.00 in   Overcast
8:53 PM 73.9 °F - 71.1 °F 91% 29.99 in 10.0 mi ENE 6.9 mph - 0.00 in   Mostly Cloudy
9:53 PM 73.9 °F - 71.1 °F 91% 29.99 in 10.0 mi East 5.8 mph - N/A   Mostly Cloudy
10:53 PM 75.0 °F - 72.0 °F 90% 30.00 in 10.0 mi SW 3.5 mph - N/A   Scattered Clouds
11:53 PM 73.9 °F - 72.0 °F 93% 30.02 in 10.0 mi Calm Calm - N/A   Scattered Clouds